Time,TemperatureF,DewpointF,PressureIn,WindDirection,WindDirectionDegrees,WindSpeedMPH,WindSpeedGustMPH,Humidity,HourlyPrecipIn,Conditions,Clouds,dailyrainin,SoftwareType,DateUTC
2013-01-29 00:04:00,69.0,-99.9,30.24,ESE,102,5.0,8.0,-999,-99.99,,,-99.99,,2013-01-29 05:04:00,
2013-01-29 00:12:00,69.0,-99.9,30.24,ESE,103,5.0,9.0,-999,-99.99,,,-99.99,,2013-01-29 05:12:00,
2013-01-29 00:22:00,68.0,-99.9,30.24,ESE,114,7.0,11.0,-999,-99.99,,,-99.99,,2013-01-29 05:22:00,
2013-01-29 00:32:00,68.0,-99.9,30.23,East,90,6.0,11.0,-999,-99.99,,,-99.99,,2013-01-29 05:32:00,
2013-01-29 00:43:00,68.0,-99.9,30.23,East,95,8.0,11.0,-999,-99.99,,,-99.99,,2013-01-29 05:43:00,
2013-01-29 00:52:00,68.0,-99.9,30.23,ESE,119,9.0,12.0,-999,-99.99,,,-99.99,,2013-01-29 05:52:00,
2013-01-29 01:02:00,68.0,-99.9,30.23,ESE,109,8.0,11.0,-999,-99.99,,,-99.99,,2013-01-29 06:02:00,
2013-01-29 01:11:00,68.0,-99.9,30.23,ESE,110,7.0,11.0,-999,-99.99,,,-99.99,,2013-01-29 06:11:00,
2013-01-29 01:22:00,68.0,-99.9,30.22,ESE,117,11.0,13.0,-999,-99.99,,,-99.99,,2013-01-29 06:22:00,
2013-01-29 01:32:00,68.0,-99.9,30.22,ESE,102,9.0,14.0,-999,-99.99,,,-99.99,,2013-01-29 06:32:00,
2013-01-29 01:42:00,68.0,-99.9,30.22,SE,135,10.0,14.0,-999,-99.99,,,-99.99,,2013-01-29 06:42:00,
2013-01-29 01:52:00,68.0,-99.9,30.22,SE,124,9.0,15.0,-999,-99.99,,,-99.99,,2013-01-29 06:52:00,
2013-01-29 02:02:00,68.0,-99.9,30.22,SE,128,10.0,13.0,-999,-99.99,,,-99.99,,2013-01-29 07:02:00,
2013-01-29 02:11:00,68.0,-99.9,30.21,SE,129,10.0,16.0,-999,-99.99,,,-99.99,,2013-01-29 07:11:00,
2013-01-29 02:21:00,68.0,-99.9,30.21,SE,129,10.0,13.0,-999,-99.99,,,-99.99,,2013-01-29 07:21:00,
2013-01-29 02:32:00,67.0,-99.9,30.21,SE,133,8.0,13.0,-999,-99.99,,,-99.99,,2013-01-29 07:32:00,
2013-01-29 02:42:00,67.0,-99.9,30.21,SE,130,9.0,14.0,-999,-99.99,,,-99.99,,2013-01-29 07:42:00,
2013-01-29 02:52:00,67.0,-99.9,30.20,SE,135,7.0,11.0,-999,-99.99,,,-99.99,,2013-01-29 07:52:00,
2013-01-29 03:02:00,67.0,-99.9,30.20,SE,132,5.0,7.0,-999,-99.99,,,-99.99,,2013-01-29 08:02:00,
2013-01-29 03:11:00,67.0,-99.9,30.20,ESE,120,5.0,8.0,-999,-99.99,,,-99.99,,2013-01-29 08:11:00,
2013-01-29 03:21:00,66.0,-99.9,30.20,East,98,3.0,6.0,-999,-99.99,,,-99.99,,2013-01-29 08:21:00,
2013-01-29 03:32:00,66.0,-99.9,30.21,East,93,4.0,6.0,-999,-99.99,,,-99.99,,2013-01-29 08:32:00,
2013-01-29 03:42:00,66.0,-99.9,30.21,East,91,3.0,5.0,-999,-99.99,,,-99.99,,2013-01-29 08:42:00,
2013-01-29 03:52:00,66.0,-99.9,30.21,East,85,3.0,5.0,-999,-99.99,,,-99.99,,2013-01-29 08:52:00,
2013-01-29 04:02:00,66.0,-99.9,30.21,ENE,57,3.0,4.0,-999,-99.99,,,-99.99,,2013-01-29 09:02:00,
2013-01-29 04:11:00,66.0,-99.9,30.21,East,81,4.0,5.0,-999,-99.99,,,-99.99,,2013-01-29 09:11:00,
2013-01-29 04:22:00,66.0,-99.9,30.20,East,93,4.0,5.0,-999,-99.99,,,-99.99,,2013-01-29 09:22:00,
2013-01-29 04:32:00,65.0,-99.9,30.20,East,91,5.0,6.0,-999,-99.99,,,-99.99,,2013-01-29 09:32:00,
2013-01-29 04:42:00,65.0,-99.9,30.20,East,98,4.0,6.0,-999,-99.99,,,-99.99,,2013-01-29 09:42:00,
2013-01-29 04:52:00,65.0,-99.9,30.20,East,99,4.0,5.0,-999,-99.99,,,-99.99,,2013-01-29 09:52:00,
2013-01-29 05:02:00,65.0,-99.9,30.20,East,100,4.0,5.0,-999,-99.99,,,-99.99,,2013-01-29 10:02:00,
2013-01-29 05:11:00,65.0,-99.9,30.20,East,91,4.0,6.0,-999,-99.99,,,-99.99,,2013-01-29 10:11:00,
2013-01-29 05:22:00,65.0,-99.9,30.20,East,83,5.0,6.0,-999,-99.99,,,-99.99,,2013-01-29 10:22:00,
2013-01-29 05:32:00,65.0,-99.9,30.20,East,86,5.0,7.0,-999,-99.99,,,-99.99,,2013-01-29 10:32:00,
2013-01-29 05:42:00,65.0,-99.9,30.20,East,97,4.0,6.0,-999,-99.99,,,-99.99,,2013-01-29 10:42:00,
2013-01-29 05:52:00,65.0,-99.9,30.20,East,94,4.0,7.0,-999,-99.99,,,-99.99,,2013-01-29 10:52:00,
2013-01-29 06:02:00,64.0,-99.9,30.20,East,91,4.0,6.0,-999,-99.99,,,-99.99,,2013-01-29 11:02:00,
2013-01-29 06:12:00,64.0,-99.9,30.20,East,89,4.0,6.0,-999,-99.99,,,-99.99,,2013-01-29 11:12:00,
2013-01-29 06:22:00,64.0,-99.9,30.21,ESE,103,5.0,7.0,-999,-99.99,,,-99.99,,2013-01-29 11:22:00,
2013-01-29 06:32:00,64.0,-99.9,30.20,East,88,5.0,6.0,-999,-99.99,,,-99.99,,2013-01-29 11:32:00,
2013-01-29 06:42:00,64.0,-99.9,30.21,East,84,5.0,7.0,-999,-99.99,,,-99.99,,2013-01-29 11:42:00,
2013-01-29 06:53:00,64.0,-99.9,30.21,East,91,5.0,7.0,-999,-99.99,,,-99.99,,2013-01-29 11:53:00,
2013-01-29 07:03:00,64.0,-99.9,30.21,ESE,107,5.0,7.0,-999,-99.99,,,-99.99,,2013-01-29 12:03:00,
2013-01-29 07:12:00,64.0,-99.9,30.21,East,101,6.0,8.0,-999,-99.99,,,-99.99,,2013-01-29 12:12:00,
2013-01-29 07:22:00,64.0,-99.9,30.21,ESE,107,7.0,9.0,-999,-99.99,,,-99.99,,2013-01-29 12:22:00,
2013-01-29 07:33:00,64.0,-99.9,30.21,East,92,7.0,9.0,-999,-99.99,,,-99.99,,2013-01-29 12:33:00,
2013-01-29 07:43:00,64.0,-99.9,30.21,East,99,6.0,9.0,-999,-99.99,,,-99.99,,2013-01-29 12:43:00,
2013-01-29 07:53:00,64.0,-99.9,30.21,ESE,108,6.0,9.0,-999,-99.99,,,-99.99,,2013-01-29 12:53:00,
2013-01-29 08:02:00,64.0,-99.9,30.21,ESE,106,7.0,11.0,-999,-99.99,,,-99.99,,2013-01-29 13:02:00,
2013-01-29 08:12:00,64.0,-99.9,30.22,East,91,7.0,10.0,-999,-99.99,,,-99.99,,2013-01-29 13:12:00,
2013-01-29 08:23:00,64.0,-99.9,30.22,East,93,7.0,9.0,-999,-99.99,,,-99.99,,2013-01-29 13:23:00,
2013-01-29 08:32:00,64.0,-99.9,30.22,East,100,6.0,11.0,-999,-99.99,,,-99.99,,2013-01-29 13:32:00,
2013-01-29 08:43:00,64.0,-99.9,30.22,ESE,105,7.0,11.0,-999,-99.99,,,-99.99,,2013-01-29 13:43:00,
2013-01-29 08:53:00,65.0,-99.9,30.22,ESE,108,10.0,13.0,-999,-99.99,,,-99.99,,2013-01-29 13:53:00,
2013-01-29 09:02:00,65.0,-99.9,30.22,ESE,109,7.0,10.0,-999,-99.99,,,-99.99,,2013-01-29 14:02:00,
2013-01-29 09:12:00,65.0,-99.9,30.22,ESE,109,8.0,11.0,-999,-99.99,,,-99.99,,2013-01-29 14:12:00,
2013-01-29 09:22:00,66.0,-99.9,30.22,ESE,112,10.0,13.0,-999,-99.99,,,-99.99,,2013-01-29 14:22:00,
2013-01-29 09:33:00,66.0,-99.9,30.23,ESE,116,9.0,13.0,-999,-99.99,,,-99.99,,2013-01-29 14:33:00,
2013-01-29 09:43:00,66.0,-99.9,30.23,ESE,120,9.0,12.0,-999,-99.99,,,-99.99,,2013-01-29 14:43:00,
2013-01-29 09:53:00,67.0,-99.9,30.22,ESE,122,8.0,14.0,-999,-99.99,,,-99.99,,2013-01-29 14:53:00,
2013-01-29 10:03:00,67.0,-99.9,30.22,ESE,122,8.0,14.0,-999,-99.99,,,-99.99,,2013-01-29 15:03:00,
2013-01-29 10:12:00,67.0,-99.9,30.22,ESE,122,8.0,14.0,-999,-99.99,,,-99.99,,2013-01-29 15:12:00,
2013-01-29 10:22:00,68.0,-99.9,30.22,ESE,116,9.0,12.0,-999,-99.99,,,-99.99,,2013-01-29 15:22:00,
2013-01-29 10:33:00,68.0,-99.9,30.22,ESE,122,8.0,12.0,-999,-99.99,,,-99.99,,2013-01-29 15:33:00,
2013-01-29 10:43:00,69.0,-99.9,30.22,ESE,118,9.0,11.0,-999,-99.99,,,-99.99,,2013-01-29 15:43:00,
2013-01-29 10:53:00,71.0,-99.9,30.21,SE,124,9.0,11.0,-999,-99.99,,,-99.99,,2013-01-29 15:53:00,
2013-01-29 11:03:00,72.0,-99.9,30.21,SE,136,10.0,15.0,-999,-99.99,,,-99.99,,2013-01-29 16:03:00,
2013-01-29 11:13:00,72.0,-99.9,30.21,SSE,153,9.0,16.0,-999,-99.99,,,-99.99,,2013-01-29 16:13:00,
2013-01-29 11:23:00,72.0,-99.9,30.20,SSE,152,12.0,18.0,-999,-99.99,,,-99.99,,2013-01-29 16:23:00,
2013-01-29 11:33:00,73.0,-99.9,30.20,SSE,155,12.0,18.0,-999,-99.99,,,-99.99,,2013-01-29 16:33:00,
2013-01-29 11:43:00,73.0,-99.9,30.19,SSE,157,10.0,16.0,-999,-99.99,,,-99.99,,2013-01-29 16:43:00,
2013-01-29 11:53:00,73.0,-99.9,30.19,SSE,158,11.0,17.0,-999,-99.99,,,-99.99,,2013-01-29 16:53:00,
2013-01-29 12:03:00,74.0,-99.9,30.19,SSE,163,8.0,12.0,-999,-99.99,,,-99.99,,2013-01-29 17:03:00,
2013-01-29 12:12:00,74.0,-99.9,30.19,SSE,160,12.0,17.0,-999,-99.99,,,-99.99,,2013-01-29 17:12:00,
2013-01-29 12:22:00,74.0,-99.9,30.18,SE,135,9.0,13.0,-999,-99.99,,,-99.99,,2013-01-29 17:22:00,
2013-01-29 12:33:00,75.0,-99.9,30.18,SSE,159,9.0,14.0,-999,-99.99,,,-99.99,,2013-01-29 17:33:00,
2013-01-29 12:42:00,75.0,-99.9,30.17,SSE,159,11.0,14.0,-999,-99.99,,,-99.99,,2013-01-29 17:42:00,
2013-01-29 12:53:00,75.0,-99.9,30.17,SSE,166,10.0,13.0,-999,-99.99,,,-99.99,,2013-01-29 17:53:00,
2013-01-29 13:05:00,76.0,-99.9,30.16,SSE,164,10.0,14.0,-999,-99.99,,,-99.99,,2013-01-29 18:05:00,
2013-01-29 13:13:00,76.0,-99.9,30.16,SSE,156,9.0,13.0,-999,-99.99,,,-99.99,,2013-01-29 18:13:00,
2013-01-29 13:22:00,77.0,-99.9,30.15,SSE,155,11.0,15.0,-999,-99.99,,,-99.99,,2013-01-29 18:22:00,
2013-01-29 13:34:00,77.0,-99.9,30.14,SSE,168,9.0,12.0,-999,-99.99,,,-99.99,,2013-01-29 18:34:00,
2013-01-29 13:43:00,78.0,-99.9,30.14,SSE,157,9.0,13.0,-999,-99.99,,,-99.99,,2013-01-29 18:43:00,
2013-01-29 13:52:00,78.0,-99.9,30.14,SSE,166,7.0,10.0,-999,-99.99,,,-99.99,,2013-01-29 18:52:00,
2013-01-29 14:03:00,77.0,-99.9,30.13,South,185,11.0,16.0,-999,-99.99,,,-99.99,,2013-01-29 19:03:00,
2013-01-29 14:12:00,78.0,-99.9,30.13,South,186,10.0,13.0,-999,-99.99,,,-99.99,,2013-01-29 19:12:00,
2013-01-29 14:23:00,73.0,-99.9,30.12,SW,218,13.0,15.0,-999,-99.99,,,-99.99,,2013-01-29 19:23:00,
2013-01-29 14:33:00,72.0,-99.9,30.12,SW,220,15.0,18.0,-999,-99.99,,,-99.99,,2013-01-29 19:33:00,
2013-01-29 14:42:00,72.0,-99.9,30.12,SW,222,15.0,17.0,-999,-99.99,,,-99.99,,2013-01-29 19:42:00,
2013-01-29 14:52:00,71.0,-99.9,30.12,SW,221,17.0,19.0,-999,-99.99,,,-99.99,,2013-01-29 19:52:00,
2013-01-29 15:03:00,71.0,-99.9,30.11,SW,216,17.0,20.0,-999,-99.99,,,-99.99,,2013-01-29 20:03:00,
2013-01-29 15:13:00,71.0,-99.9,30.11,SSW,210,16.0,18.0,-999,-99.99,,,-99.99,,2013-01-29 20:13:00,
2013-01-29 15:23:00,71.0,-99.9,30.11,SSW,211,16.0,18.0,-999,-99.99,,,-99.99,,2013-01-29 20:23:00,
2013-01-29 15:33:00,71.0,-99.9,30.11,SSW,209,16.0,18.0,-999,-99.99,,,-99.99,,2013-01-29 20:33:00,
2013-01-29 15:43:00,72.0,-99.9,30.11,SSW,208,17.0,19.0,-999,-99.99,,,-99.99,,2013-01-29 20:43:00,
2013-01-29 15:54:00,72.0,-99.9,30.11,SSW,206,17.0,19.0,-999,-99.99,,,-99.99,,2013-01-29 20:54:00,
2013-01-29 16:03:00,71.0,-99.9,30.11,SSW,210,15.0,17.0,-999,-99.99,,,-99.99,,2013-01-29 21:03:00,
2013-01-29 16:13:00,71.0,-99.9,30.11,SSW,208,15.0,17.0,-999,-99.99,,,-99.99,,2013-01-29 21:13:00,
2013-01-29 16:22:00,71.0,-99.9,30.11,SSW,210,13.0,16.0,-999,-99.99,,,-99.99,,2013-01-29 21:22:00,
2013-01-29 16:34:00,72.0,-99.9,30.10,SSW,209,14.0,16.0,-999,-99.99,,,-99.99,,2013-01-29 21:34:00,
2013-01-29 16:42:00,72.0,-99.9,30.10,SSW,203,13.0,16.0,-999,-99.99,,,-99.99,,2013-01-29 21:42:00,
2013-01-29 16:53:00,73.0,-99.9,30.10,SSW,198,13.0,15.0,-999,-99.99,,,-99.99,,2013-01-29 21:53:00,
2013-01-29 17:03:00,73.0,-99.9,30.10,SSW,194,15.0,17.0,-999,-99.99,,,-99.99,,2013-01-29 22:03:00,
2013-01-29 17:12:00,73.0,-99.9,30.11,South,187,14.0,17.0,-999,-99.99,,,-99.99,,2013-01-29 22:12:00,
2013-01-29 17:22:00,74.0,-99.9,30.11,South,189,13.0,15.0,-999,-99.99,,,-99.99,,2013-01-29 22:22:00,
2013-01-29 17:33:00,74.0,-99.9,30.10,South,185,10.0,12.0,-999,-99.99,,,-99.99,,2013-01-29 22:33:00,
2013-01-29 17:43:00,73.0,-99.9,30.10,South,189,10.0,12.0,-999,-99.99,,,-99.99,,2013-01-29 22:43:00,
2013-01-29 17:53:00,74.0,-99.9,30.10,South,181,11.0,14.0,-999,-99.99,,,-99.99,,2013-01-29 22:53:00,
2013-01-29 18:03:00,73.0,-99.9,30.10,South,185,10.0,13.0,-999,-99.99,,,-99.99,,2013-01-29 23:03:00,
2013-01-29 18:12:00,74.0,-99.9,30.10,South,185,11.0,14.0,-999,-99.99,,,-99.99,,2013-01-29 23:12:00,
2013-01-29 18:23:00,74.0,-99.9,30.10,South,175,9.0,12.0,-999,-99.99,,,-99.99,,2013-01-29 23:23:00,
2013-01-29 18:33:00,74.0,-99.9,30.10,South,173,9.0,12.0,-999,-99.99,,,-99.99,,2013-01-29 23:33:00,
2013-01-29 18:42:00,74.0,-99.9,30.10,South,178,8.0,10.0,-999,-99.99,,,-99.99,,2013-01-29 23:42:00,
2013-01-29 18:53:00,73.0,-99.9,30.10,South,186,9.0,12.0,-999,-99.99,,,-99.99,,2013-01-29 23:53:00,
2013-01-29 19:03:00,73.0,-99.9,30.11,South,188,13.0,17.0,-999,-99.99,,,-99.99,,2013-01-30 00:03:00,
2013-01-29 19:12:00,73.0,-99.9,30.10,South,187,12.0,16.0,-999,-99.99,,,-99.99,,2013-01-30 00:12:00,
2013-01-29 19:22:00,73.0,-99.9,30.10,South,183,11.0,15.0,-999,-99.99,,,-99.99,,2013-01-30 00:22:00,
2013-01-29 19:33:00,73.0,-99.9,30.10,South,178,11.0,14.0,-999,-99.99,,,-99.99,,2013-01-30 00:33:00,
2013-01-29 19:43:00,73.0,-99.9,30.10,South,180,11.0,15.0,-999,-99.99,,,-99.99,,2013-01-30 00:43:00,
2013-01-29 19:53:00,73.0,-99.9,30.09,South,175,10.0,13.0,-999,-99.99,,,-99.99,,2013-01-30 00:53:00,
2013-01-29 20:02:00,73.0,-99.9,30.09,South,182,11.0,15.0,-999,-99.99,,,-99.99,,2013-01-30 01:02:00,
2013-01-29 20:12:00,73.0,-99.9,30.10,South,181,11.0,16.0,-999,-99.99,,,-99.99,,2013-01-30 01:12:00,
2013-01-29 20:23:00,73.0,-99.9,30.10,South,181,11.0,13.0,-999,-99.99,,,-99.99,,2013-01-30 01:23:00,
2013-01-29 20:32:00,73.0,-99.9,30.10,South,177,11.0,16.0,-999,-99.99,,,-99.99,,2013-01-30 01:32:00,
2013-01-29 20:43:00,73.0,-99.9,30.10,South,181,12.0,15.0,-999,-99.99,,,-99.99,,2013-01-30 01:43:00,
2013-01-29 20:52:00,73.0,-99.9,30.10,South,181,13.0,16.0,-999,-99.99,,,-99.99,,2013-01-30 01:52:00,
2013-01-29 21:03:00,72.0,-99.9,30.10,South,181,12.0,17.0,-999,-99.99,,,-99.99,,2013-01-30 02:03:00,
2013-01-29 21:13:00,73.0,-99.9,30.10,South,174,14.0,18.0,-999,-99.99,,,-99.99,,2013-01-30 02:13:00,
2013-01-29 21:22:00,72.0,-99.9,30.09,South,179,12.0,17.0,-999,-99.99,,,-99.99,,2013-01-30 02:22:00,
2013-01-29 21:33:00,73.0,-99.9,30.09,South,173,12.0,16.0,-999,-99.99,,,-99.99,,2013-01-30 02:33:00,
2013-01-29 21:42:00,73.0,-99.9,30.09,South,177,13.0,17.0,-999,-99.99,,,-99.99,,2013-01-30 02:42:00,
2013-01-29 21:53:00,73.0,-99.9,30.08,South,173,15.0,20.0,-999,-99.99,,,-99.99,,2013-01-30 02:53:00,
2013-01-29 22:03:00,73.0,-99.9,30.09,South,176,16.0,20.0,-999,-99.99,,,-99.99,,2013-01-30 03:03:00,
2013-01-29 22:12:00,73.0,-99.9,30.08,South,177,13.0,19.0,-999,-99.99,,,-99.99,,2013-01-30 03:12:00,
2013-01-29 22:22:00,72.0,-99.9,30.09,South,179,13.0,19.0,-999,-99.99,,,-99.99,,2013-01-30 03:22:00,
2013-01-29 22:33:00,72.0,-99.9,30.08,South,177,13.0,17.0,-999,-99.99,,,-99.99,,2013-01-30 03:33:00,
2013-01-29 22:42:00,72.0,-99.9,30.09,South,178,13.0,18.0,-999,-99.99,,,-99.99,,2013-01-30 03:42:00,
2013-01-29 22:52:00,73.0,-99.9,30.09,South,176,15.0,17.0,-999,-99.99,,,-99.99,,2013-01-30 03:52:00,
2013-01-29 23:02:00,73.0,-99.9,30.09,South,176,14.0,17.0,-999,-99.99,,,-99.99,,2013-01-30 04:02:00,
2013-01-29 23:12:00,73.0,-99.9,30.09,South,178,14.0,19.0,-999,-99.99,,,-99.99,,2013-01-30 04:12:00,
2013-01-29 23:22:00,73.0,-99.9,30.09,South,174,15.0,20.0,-999,-99.99,,,-99.99,,2013-01-30 04:22:00,
2013-01-29 23:32:00,73.0,-99.9,30.09,South,178,13.0,16.0,-999,-99.99,,,-99.99,,2013-01-30 04:32:00,
2013-01-29 23:42:00,73.0,-99.9,30.09,South,174,12.0,16.0,-999,-99.99,,,-99.99,,2013-01-30 04:42:00,
2013-01-29 23:52:00,73.0,-99.9,30.10,South,179,14.0,19.0,-999,-99.99,,,-99.99,,2013-01-30 04:52:00,